RYR7H EGKK-EIDW

Flight info

Callsign RYR7H
Flight time 0h 58m
Altitude 34000
Route IMVUR N63 VOUGA N14 BIBPE DCT OKTAD DCT MEDOG DCT KRAGY DCT PEMOB M17 VATRY VATRY4L
Aircraft B738/M-SDE2E3FGHIRWXY/LB1

Departure

Time 2026-05-07 18:21
Airport London Gatwick Airport (EGKK)

Arrival

Time 2026-05-07 19:19
Airport Dublin Airport (EIDW)
Time Latitude Longitude Altitude Speed Heading
2026-05-07 17:48 51.15467 -0.17089 204 ft 0 kts 348°
2026-05-07 18:04 51.15455 -0.17085 216 ft 2 kts 348°
2026-05-07 18:05 51.15439 -0.17080 210 ft 2 kts 348°
2026-05-07 18:05 51.15423 -0.17074 210 ft 2 kts 329°
2026-05-07 18:05 51.15418 -0.17051 215 ft 2 kts 257°
2026-05-07 18:05 51.15422 -0.17028 207 ft 1 kts 256°
2026-05-07 18:06 51.15422 -0.17025 206 ft 0 kts 256°
2026-05-07 18:10 51.15422 -0.17027 204 ft 1 kts 256°
2026-05-07 18:10 51.15412 -0.17096 207 ft 10 kts 257°
2026-05-07 18:10 51.15384 -0.17217 208 ft 13 kts 252°
2026-05-07 18:11 51.15348 -0.17352 205 ft 14 kts 217°
2026-05-07 18:11 51.15304 -0.17419 209 ft 13 kts 248°
2026-05-07 18:11 51.15279 -0.17608 204 ft 13 kts 258°
2026-05-07 18:11 51.15261 -0.17743 210 ft 12 kts 258°
2026-05-07 18:12 51.15243 -0.17876 214 ft 12 kts 257°
2026-05-07 18:12 51.15224 -0.18015 210 ft 14 kts 257°
2026-05-07 18:12 51.15202 -0.18169 204 ft 15 kts 258°
2026-05-07 18:12 51.15186 -0.18329 211 ft 14 kts 261°
2026-05-07 18:13 51.15166 -0.18482 206 ft 14 kts 257°
2026-05-07 18:13 51.15152 -0.18579 204 ft 13 kts 257°
2026-05-07 18:13 51.15133 -0.18721 204 ft 13 kts 257°
2026-05-07 18:13 51.15108 -0.18903 207 ft 12 kts 258°
2026-05-07 18:14 51.15090 -0.19037 207 ft 12 kts 258°
2026-05-07 18:14 51.15072 -0.19168 211 ft 13 kts 257°
2026-05-07 18:14 51.15051 -0.19317 211 ft 15 kts 257°
2026-05-07 18:14 51.15035 -0.19433 210 ft 17 kts 257°
2026-05-07 18:15 51.15008 -0.19633 204 ft 20 kts 258°
2026-05-07 18:15 51.14977 -0.19854 209 ft 20 kts 257°
2026-05-07 18:15 51.14947 -0.20070 204 ft 18 kts 257°
2026-05-07 18:15 51.14922 -0.20255 204 ft 15 kts 257°
2026-05-07 18:16 51.14900 -0.20413 208 ft 14 kts 257°
2026-05-07 18:16 51.14879 -0.20565 205 ft 14 kts 257°
2026-05-07 18:16 51.14814 -0.20664 203 ft 13 kts 209°
2026-05-07 18:16 51.14759 -0.20767 205 ft 13 kts 256°
2026-05-07 18:17 51.14740 -0.20903 214 ft 12 kts 257°
2026-05-07 18:17 51.14722 -0.21035 214 ft 12 kts 257°
2026-05-07 18:17 51.14704 -0.21164 204 ft 12 kts 257°
2026-05-07 18:17 51.14686 -0.21289 209 ft 11 kts 250°
2026-05-07 18:18 51.14637 -0.21337 204 ft 7 kts 172°
2026-05-07 18:18 51.14632 -0.21335 204 ft 0 kts 168°
2026-05-07 18:18 51.14630 -0.21334 204 ft 2 kts 168°
2026-05-07 18:18 51.14589 -0.21319 209 ft 9 kts 165°
2026-05-07 18:19 51.14528 -0.21244 213 ft 14 kts 122°
2026-05-07 18:19 51.14523 -0.21147 205 ft 0 kts 77°
2026-05-07 18:19 51.14523 -0.21145 205 ft 3 kts 77°
2026-05-07 18:20 51.14559 -0.20890 210 ft 54 kts 78°
2026-05-07 18:20 51.14686 -0.19973 215 ft 114 kts 78°
2026-05-07 18:20 51.14889 -0.18497 250 ft 155 kts 79°
2026-05-07 18:20 51.15124 -0.16730 659 ft 166 kts 80°
2026-05-07 18:21 51.15367 -0.14902 1262 ft 168 kts 80°
2026-05-07 18:21 51.15611 -0.13134 1592 ft 165 kts 80°
2026-05-07 18:21 51.15855 -0.11330 1690 ft 169 kts 79°
2026-05-07 18:21 51.16108 -0.09461 1858 ft 183 kts 80°
2026-05-07 18:22 51.16456 -0.07344 2164 ft 212 kts 66°
2026-05-07 18:22 51.17038 -0.06052 2407 ft 223 kts 44°
2026-05-07 18:22 51.18971 -0.04935 2882 ft 232 kts 355°
2026-05-07 18:22 51.20537 -0.05427 2977 ft 231 kts 344°
2026-05-07 18:23 51.21909 -0.06730 3003 ft 232 kts 310°
2026-05-07 18:23 51.22647 -0.09037 3028 ft 248 kts 279°
2026-05-07 18:23 51.22588 -0.11839 3304 ft 257 kts 259°
2026-05-07 18:23 51.22255 -0.14681 3684 ft 262 kts 258°
2026-05-07 18:24 51.21907 -0.17558 4085 ft 265 kts 258°
2026-05-07 18:24 51.21560 -0.20443 4464 ft 265 kts 259°
2026-05-07 18:24 51.21217 -0.23351 4859 ft 267 kts 259°
2026-05-07 18:24 51.20876 -0.26273 5241 ft 268 kts 259°
2026-05-07 18:25 51.20534 -0.29211 5623 ft 269 kts 259°
2026-05-07 18:25 51.20192 -0.32150 6013 ft 270 kts 259°
2026-05-07 18:25 51.19845 -0.35095 6406 ft 270 kts 259°
2026-05-07 18:25 51.19475 -0.37998 6777 ft 271 kts 258°
2026-05-07 18:26 51.19093 -0.40933 7168 ft 270 kts 258°
2026-05-07 18:26 51.18715 -0.43848 7618 ft 268 kts 258°
2026-05-07 18:26 51.18335 -0.46772 8095 ft 272 kts 258°
2026-05-07 18:26 51.17946 -0.49758 8574 ft 276 kts 258°
2026-05-07 18:27 51.17555 -0.52753 9039 ft 275 kts 257°
2026-05-07 18:27 51.16974 -0.55654 9523 ft 276 kts 248°
2026-05-07 18:27 51.16218 -0.58466 10009 ft 276 kts 246°
2026-05-07 18:27 51.15433 -0.61260 10432 ft 278 kts 245°
2026-05-07 18:28 51.14615 -0.64193 10603 ft 302 kts 246°
2026-05-07 18:28 51.13743 -0.67360 10901 ft 320 kts 246°
2026-05-07 18:28 51.12847 -0.70649 11521 ft 327 kts 246°
2026-05-07 18:28 51.11942 -0.73999 12268 ft 330 kts 246°
2026-05-07 18:29 51.11035 -0.77366 13034 ft 334 kts 246°
2026-05-07 18:29 51.10125 -0.80750 13784 ft 338 kts 246°
2026-05-07 18:29 51.09193 -0.84212 14480 ft 342 kts 246°
2026-05-07 18:29 51.08252 -0.87702 15229 ft 344 kts 246°
2026-05-07 18:30 51.07674 -0.91403 15981 ft 350 kts 266°
2026-05-07 18:30 51.07973 -0.95247 16763 ft 355 kts 286°
2026-05-07 18:30 51.09131 -0.98757 17494 ft 363 kts 306°
2026-05-07 18:30 51.11009 -1.01470 18206 ft 371 kts 324°
2026-05-07 18:31 51.13213 -1.03642 18847 ft 375 kts 327°
2026-05-07 18:31 51.15479 -1.05747 19440 ft 379 kts 328°
2026-05-07 18:31 51.17768 -1.07860 20039 ft 383 kts 327°
2026-05-07 18:31 51.20075 -1.10016 20661 ft 386 kts 327°
2026-05-07 18:32 51.22395 -1.12213 21261 ft 389 kts 327°
2026-05-07 18:32 51.24723 -1.14441 21859 ft 392 kts 327°
2026-05-07 18:32 51.27072 -1.16702 22434 ft 396 kts 327°
2026-05-07 18:32 51.29441 -1.18986 23007 ft 399 kts 326°
2026-05-07 18:33 51.31829 -1.21292 23569 ft 402 kts 326°
2026-05-07 18:33 51.34278 -1.23521 24035 ft 407 kts 332°
2026-05-07 18:33 51.36912 -1.25240 24510 ft 411 kts 337°
2026-05-07 18:33 51.39604 -1.26819 24978 ft 413 kts 338°
2026-05-07 18:34 51.42281 -1.28375 25432 ft 416 kts 338°
2026-05-07 18:34 51.45005 -1.29982 25878 ft 418 kts 337°
2026-05-07 18:34 51.47735 -1.31623 26323 ft 421 kts 337°
2026-05-07 18:34 51.50485 -1.33293 26769 ft 423 kts 336°
2026-05-07 18:35 51.53251 -1.34974 27209 ft 426 kts 337°
2026-05-07 18:35 51.56042 -1.36651 27533 ft 429 kts 337°
2026-05-07 18:35 51.58757 -1.38666 27516 ft 429 kts 324°
2026-05-07 18:35 51.61060 -1.41637 27523 ft 422 kts 311°
2026-05-07 18:36 51.62848 -1.45309 27518 ft 414 kts 297°
2026-05-07 18:36 51.64193 -1.49408 27534 ft 414 kts 295°
2026-05-07 18:36 51.65497 -1.53562 27525 ft 417 kts 295°
2026-05-07 18:36 51.66813 -1.57673 27603 ft 420 kts 295°
2026-05-07 18:37 51.68178 -1.61853 28005 ft 422 kts 296°
2026-05-07 18:37 51.69499 -1.66051 28553 ft 419 kts 291°
2026-05-07 18:37 51.70459 -1.70472 29073 ft 417 kts 283°
2026-05-07 18:37 51.70962 -1.75051 29605 ft 413 kts 274°
2026-05-07 18:38 51.71252 -1.79654 30171 ft 411 kts 274°
2026-05-07 18:38 51.71547 -1.84234 30608 ft 411 kts 275°
2026-05-07 18:38 51.72032 -1.88776 30998 ft 411 kts 281°
2026-05-07 18:38 51.72691 -1.93270 31439 ft 410 kts 282°
2026-05-07 18:39 51.73388 -1.97724 31893 ft 409 kts 282°
2026-05-07 18:39 51.74085 -2.02161 32316 ft 408 kts 282°
2026-05-07 18:39 51.74771 -2.06601 32716 ft 407 kts 282°
2026-05-07 18:39 51.75443 -2.11036 33141 ft 406 kts 281°
2026-05-07 18:40 51.76104 -2.15469 33515 ft 405 kts 281°
2026-05-07 18:40 51.76758 -2.19897 33922 ft 404 kts 281°
2026-05-07 18:40 51.77409 -2.24336 33997 ft 408 kts 281°
2026-05-07 18:41 51.78705 -2.33214 34016 ft 408 kts 281°
2026-05-07 18:41 51.79991 -2.42062 34020 ft 403 kts 281°
2026-05-07 18:42 51.81267 -2.50887 34027 ft 403 kts 281°
2026-05-07 18:42 51.82519 -2.59752 34036 ft 404 kts 280°
2026-05-07 18:43 51.83716 -2.68640 34038 ft 405 kts 279°
2026-05-07 18:43 51.84899 -2.77504 34041 ft 406 kts 279°
2026-05-07 18:44 51.86089 -2.86428 34047 ft 406 kts 279°
2026-05-07 18:44 51.87277 -2.95370 34051 ft 407 kts 279°
2026-05-07 18:45 51.88461 -3.04332 34041 ft 407 kts 279°
2026-05-07 18:45 51.89638 -3.13303 34032 ft 408 kts 279°
2026-05-07 18:46 51.90810 -3.22287 34021 ft 408 kts 279°
2026-05-07 18:46 51.91974 -3.31274 34027 ft 408 kts 279°
2026-05-07 18:47 51.93128 -3.40236 34010 ft 408 kts 279°
2026-05-07 18:47 51.94281 -3.49242 34009 ft 408 kts 279°
2026-05-07 18:48 51.95427 -3.58243 34027 ft 407 kts 279°
2026-05-07 18:48 51.96569 -3.67235 34007 ft 403 kts 278°
2026-05-07 18:49 51.97678 -3.75992 34011 ft 392 kts 278°
2026-05-07 18:49 51.98761 -3.84630 33848 ft 395 kts 278°
2026-05-07 18:49 51.99304 -3.88982 33582 ft 389 kts 278°
2026-05-07 18:50 51.99838 -3.93264 33183 ft 385 kts 278°
2026-05-07 18:50 52.00364 -3.97502 32833 ft 381 kts 278°
2026-05-07 18:50 52.00886 -4.01716 32460 ft 378 kts 278°
2026-05-07 18:50 52.01400 -4.05880 32095 ft 375 kts 278°
2026-05-07 18:51 52.01908 -4.10016 31720 ft 373 kts 278°
2026-05-07 18:51 52.02412 -4.14130 31363 ft 370 kts 278°
2026-05-07 18:51 52.02912 -4.18226 31017 ft 367 kts 278°
2026-05-07 18:51 52.03406 -4.22278 30669 ft 365 kts 278°
2026-05-07 18:52 52.03896 -4.26309 30324 ft 363 kts 278°
2026-05-07 18:52 52.04381 -4.30321 29962 ft 361 kts 278°
2026-05-07 18:52 52.04858 -4.34268 29566 ft 359 kts 278°
2026-05-07 18:52 52.05334 -4.38221 29212 ft 355 kts 278°
2026-05-07 18:53 52.05805 -4.42148 28836 ft 352 kts 278°
2026-05-07 18:53 52.06271 -4.46035 28491 ft 349 kts 278°
2026-05-07 18:53 52.06731 -4.49897 28130 ft 346 kts 278°
2026-05-07 18:53 52.07187 -4.53725 27778 ft 343 kts 278°
2026-05-07 18:54 52.07638 -4.57528 27427 ft 341 kts 278°
2026-05-07 18:54 52.08083 -4.61292 27076 ft 339 kts 278°
2026-05-07 18:54 52.08520 -4.64999 26744 ft 336 kts 278°
2026-05-07 18:54 52.08958 -4.68723 26400 ft 334 kts 278°
2026-05-07 18:55 52.09392 -4.72428 26064 ft 332 kts 277°
2026-05-07 18:55 52.09822 -4.76104 25727 ft 330 kts 277°
2026-05-07 18:55 52.10248 -4.79762 25395 ft 328 kts 277°
2026-05-07 18:55 52.10671 -4.83397 25067 ft 326 kts 277°
2026-05-07 18:56 52.11092 -4.87022 24735 ft 325 kts 277°
2026-05-07 18:56 52.11509 -4.90631 24409 ft 323 kts 277°
2026-05-07 18:56 52.11923 -4.94218 24079 ft 322 kts 277°
2026-05-07 18:56 52.12332 -4.97793 23760 ft 320 kts 277°
2026-05-07 18:57 52.12732 -5.01315 23417 ft 319 kts 277°
2026-05-07 18:57 52.13134 -5.04861 23062 ft 318 kts 277°
2026-05-07 18:57 52.13532 -5.08381 22707 ft 315 kts 277°
2026-05-07 18:57 52.13932 -5.11879 22379 ft 313 kts 280°
2026-05-07 18:58 52.14785 -5.15142 22060 ft 316 kts 302°
2026-05-07 18:58 52.16333 -5.17690 21773 ft 320 kts 324°
2026-05-07 18:58 52.18288 -5.19453 21473 ft 322 kts 331°
2026-05-07 18:58 52.20375 -5.20904 21209 ft 331 kts 336°
2026-05-07 18:59 52.22561 -5.22216 20970 ft 339 kts 338°
2026-05-07 18:59 52.24805 -5.23507 20720 ft 341 kts 338°
2026-05-07 18:59 52.27033 -5.24785 20442 ft 338 kts 338°
2026-05-07 18:59 52.29213 -5.26048 20118 ft 336 kts 338°
2026-05-07 19:00 52.31406 -5.27334 19785 ft 333 kts 337°
2026-05-07 19:00 52.33578 -5.28620 19464 ft 331 kts 337°
2026-05-07 19:00 52.35738 -5.29908 19139 ft 330 kts 337°
2026-05-07 19:00 52.37891 -5.31199 18812 ft 328 kts 337°
2026-05-07 19:01 52.40027 -5.32484 18488 ft 327 kts 337°
2026-05-07 19:01 52.42162 -5.33772 18147 ft 325 kts 337°
2026-05-07 19:01 52.44284 -5.35054 17779 ft 324 kts 337°
2026-05-07 19:01 52.46390 -5.36328 17442 ft 322 kts 337°
2026-05-07 19:02 52.47781 -5.37171 17216 ft 320 kts 337°
2026-05-07 19:02 52.50567 -5.38860 17017 ft 320 kts 337°
2026-05-07 19:02 52.51946 -5.39698 16995 ft 317 kts 337°
2026-05-07 19:02 52.53983 -5.40934 16971 ft 306 kts 337°
2026-05-07 19:03 52.55981 -5.42148 16473 ft 310 kts 337°
2026-05-07 19:03 52.58025 -5.43395 15985 ft 314 kts 337°
2026-05-07 19:03 52.60073 -5.44645 15648 ft 313 kts 337°
2026-05-07 19:03 52.62109 -5.45887 15345 ft 311 kts 337°
2026-05-07 19:04 52.64129 -5.47120 15032 ft 309 kts 337°
2026-05-07 19:04 52.66139 -5.48349 14710 ft 308 kts 337°
2026-05-07 19:04 52.68145 -5.49576 14386 ft 306 kts 337°
2026-05-07 19:04 52.70114 -5.50782 14084 ft 305 kts 337°
2026-05-07 19:05 52.72099 -5.51999 13774 ft 303 kts 337°
2026-05-07 19:05 52.74074 -5.53211 13439 ft 302 kts 336°
2026-05-07 19:05 52.76035 -5.54416 13116 ft 300 kts 337°
2026-05-07 19:05 52.77984 -5.55614 12801 ft 298 kts 336°
2026-05-07 19:06 52.79919 -5.56804 12478 ft 296 kts 336°
2026-05-07 19:06 52.83761 -5.59171 11856 ft 292 kts 336°
2026-05-07 19:06 52.85660 -5.60344 11549 ft 291 kts 337°
2026-05-07 19:07 52.87551 -5.61512 11249 ft 289 kts 336°
2026-05-07 19:07 52.89404 -5.62659 10954 ft 287 kts 337°
2026-05-07 19:07 52.91270 -5.63815 10674 ft 285 kts 337°
2026-05-07 19:07 52.93124 -5.64963 10398 ft 283 kts 337°
2026-05-07 19:08 52.94958 -5.66099 10159 ft 279 kts 338°
2026-05-07 19:08 52.96766 -5.67220 9926 ft 275 kts 337°
2026-05-07 19:08 52.98549 -5.68329 9648 ft 273 kts 338°
2026-05-07 19:08 53.00329 -5.69435 9302 ft 273 kts 337°
2026-05-07 19:09 53.02093 -5.70531 8966 ft 273 kts 338°
2026-05-07 19:09 53.03884 -5.71649 8568 ft 276 kts 337°
2026-05-07 19:09 53.05679 -5.72769 8255 ft 275 kts 337°
2026-05-07 19:09 53.07457 -5.73879 8000 ft 272 kts 337°
2026-05-07 19:10 53.09224 -5.74983 7705 ft 271 kts 338°
2026-05-07 19:10 53.10984 -5.76082 7439 ft 269 kts 337°
2026-05-07 19:10 53.12741 -5.77181 7164 ft 268 kts 337°
2026-05-07 19:10 53.14488 -5.78276 6887 ft 267 kts 336°
2026-05-07 19:11 53.16224 -5.79365 6609 ft 266 kts 336°
2026-05-07 19:11 53.17954 -5.80448 6336 ft 265 kts 336°
2026-05-07 19:11 53.19679 -5.81529 6039 ft 264 kts 337°
2026-05-07 19:11 53.21370 -5.82593 5774 ft 263 kts 336°
2026-05-07 19:12 53.23073 -5.83665 5490 ft 261 kts 336°
2026-05-07 19:12 53.24769 -5.84733 5229 ft 259 kts 336°
2026-05-07 19:12 53.26448 -5.85791 4961 ft 257 kts 336°
2026-05-07 19:12 53.28112 -5.86839 4775 ft 253 kts 336°
2026-05-07 19:13 53.29729 -5.87857 4655 ft 245 kts 335°
2026-05-07 19:13 53.31301 -5.88850 4537 ft 236 kts 336°
2026-05-07 19:13 53.32818 -5.89808 4438 ft 228 kts 336°
2026-05-07 19:13 53.34278 -5.90732 4334 ft 222 kts 335°
2026-05-07 19:14 53.35720 -5.91646 4201 ft 220 kts 336°
2026-05-07 19:14 53.37128 -5.92537 4026 ft 213 kts 335°
2026-05-07 19:14 53.38499 -5.93405 3784 ft 208 kts 335°
2026-05-07 19:14 53.39788 -5.94404 3535 ft 199 kts 316°
2026-05-07 19:15 53.40419 -5.96290 3358 ft 183 kts 275°
2026-05-07 19:15 53.40564 -5.98403 3170 ft 184 kts 275°
2026-05-07 19:15 53.40707 -6.00501 3051 ft 184 kts 272°
2026-05-07 19:15 53.40828 -6.02666 2867 ft 190 kts 272°
2026-05-07 19:16 53.40945 -6.04852 2616 ft 184 kts 272°
2026-05-07 19:16 53.41055 -6.06933 2376 ft 175 kts 271°
2026-05-07 19:16 53.41159 -6.08906 2141 ft 164 kts 271°
2026-05-07 19:16 53.41257 -6.10762 1888 ft 156 kts 271°
2026-05-07 19:17 53.41347 -6.12543 1733 ft 149 kts 271°
2026-05-07 19:17 53.41446 -6.14216 1674 ft 143 kts 272°
2026-05-07 19:17 53.41531 -6.15889 1501 ft 145 kts 270°
2026-05-07 19:17 53.41612 -6.17586 1245 ft 147 kts 272°
2026-05-07 19:18 53.41715 -6.19290 952 ft 147 kts 271°
2026-05-07 19:18 53.41808 -6.21002 758 ft 150 kts 272°
2026-05-07 19:18 53.41906 -6.22762 549 ft 151 kts 273°
2026-05-07 19:18 53.41997 -6.24504 330 ft 147 kts 273°
2026-05-07 19:19 53.42090 -6.26153 220 ft 133 kts 273°
2026-05-07 19:19 53.42149 -6.27328 210 ft 58 kts 275°
2026-05-07 19:19 53.42195 -6.27824 215 ft 29 kts 295°
2026-05-07 19:19 53.42261 -6.28027 213 ft 17 kts 300°
2026-05-07 19:20 53.42344 -6.28123 214 ft 16 kts 29°
2026-05-07 19:20 53.42360 -6.27994 213 ft 5 kts 95°
2026-05-07 19:20 53.42357 -6.27939 210 ft 5 kts 95°
2026-05-07 19:20 53.42353 -6.27885 215 ft 5 kts 95°
2026-05-07 19:21 53.42350 -6.27832 220 ft 4 kts 95°
2026-05-07 19:21 53.42347 -6.27780 217 ft 5 kts 95°
2026-05-07 19:21 53.42342 -6.27687 210 ft 11 kts 95°
2026-05-07 19:21 53.42334 -6.27534 210 ft 15 kts 95°
2026-05-07 19:22 53.42324 -6.27347 210 ft 17 kts 95°
2026-05-07 19:22 53.42313 -6.27143 213 ft 18 kts 95°
2026-05-07 19:22 53.42301 -6.26934 210 ft 18 kts 95°
2026-05-07 19:22 53.42290 -6.26732 210 ft 17 kts 95°
2026-05-07 19:23 53.42280 -6.26536 214 ft 16 kts 95°
2026-05-07 19:23 53.42269 -6.26348 210 ft 16 kts 96°
2026-05-07 19:23 53.42259 -6.26167 210 ft 15 kts 95°
2026-05-07 19:23 53.42266 -6.25998 215 ft 15 kts 68°
2026-05-07 19:24 53.42324 -6.25863 210 ft 14 kts 45°
2026-05-07 19:24 53.42390 -6.25749 210 ft 13 kts 46°
2026-05-07 19:24 53.42454 -6.25641 210 ft 13 kts 45°
2026-05-07 19:24 53.42503 -6.25557 210 ft 6 kts 45°
2026-05-07 19:25 53.42514 -6.25539 213 ft 0 kts 45°
2026-05-07 19:25 53.42523 -6.25524 213 ft 6 kts 45°
2026-05-07 19:25 53.42585 -6.25417 209 ft 19 kts 45°
2026-05-07 19:26 53.42690 -6.25239 212 ft 23 kts 45°
2026-05-07 19:26 53.42791 -6.25070 210 ft 17 kts 39°
2026-05-07 19:26 53.42878 -6.24941 210 ft 17 kts 47°
2026-05-07 19:26 53.42942 -6.24908 218 ft 10 kts 302°
2026-05-07 19:27 53.42960 -6.25009 216 ft 8 kts 323°
2026-05-07 19:27 53.42988 -6.25013 210 ft 3 kts
2026-05-07 19:27 53.43009 -6.25009 213 ft 1 kts
2026-05-07 19:27 53.43012 -6.25009 212 ft 0 kts